| time (UTC) | temp F | wind direction | speed knots | gust knots | rain 1hr in | rain 24hr in | rain mn in | humidity % | barometer mb |
| 20260505040140 | 56 | 154 | 0.0 | 0.9 | 0.00 | 0.00 | 0.00 | 76 | 1012.5 |
| 20260505035636 | 57 | 130 | 0.0 | 0.9 | 0.00 | 0.00 | 0.00 | 76 | 1012.5 |
| 20260505035132 | 57 | 36 | 0.9 | 1.7 | 0.00 | 0.00 | 0.00 | 75 | 1012.5 |
| 20260505034629 | 57 | 118 | 0.0 | 1.7 | 0.00 | 0.00 | 0.00 | 75 | 1012.5 |
| 20260505034126 | 57 | 113 | 0.0 | 1.7 | 0.00 | 0.00 | 0.00 | 75 | 1012.5 |
| 20260505033623 | 57 | 136 | 0.0 | 1.7 | 0.00 | 0.00 | 0.00 | 74 | 1012.1 |
| 20260505033121 | 58 | 86 | 0.9 | 1.7 | 0.00 | 0.00 | 0.00 | 73 | 1012.1 |
| 20260505032619 | 58 | 106 | 0.0 | 1.7 | 0.00 | 0.00 | 0.00 | 73 | 1012.5 |
| 20260505032115 | 58 | 102 | 0.9 | 1.7 | 0.00 | 0.00 | 0.00 | 73 | 1012.1 |
| 20260505031613 | 59 | 242 | 1.7 | 1.7 | 0.00 | 0.00 | 0.00 | 72 | 1012.1 |
| 20260505031108 | 59 | 173 | 0.0 | 1.7 | 0.00 | 0.00 | 0.00 | 71 | 1012.1 |
| 20260505030606 | 59 | 109 | 0.0 | 1.7 | 0.00 | 0.00 | 0.00 | 70 | 1012.1 |
| 20260505025557 | 60 | 188 | 0.9 | 5.2 | 0.00 | 0.00 | 0.00 | 69 | 1011.8 |
| 20260505025056 | 61 | 263 | 1.7 | 3.5 | 0.00 | 0.00 | 0.00 | 68 | 1011.8 |
| 20260505024553 | 61 | 280 | 0.9 | 1.7 | 0.00 | 0.00 | 0.00 | 67 | 1011.8 |
| 20260505024045 | 61 | 307 | 1.7 | 3.5 | 0.00 | 0.00 | 0.00 | 66 | 1011.3 |
| 20260505023542 | 62 | 218 | 2.6 | 3.5 | 0.00 | 0.00 | 0.00 | 66 | 1011.8 |
| 20260505023039 | 62 | 189 | 0.9 | 1.7 | 0.00 | 0.00 | 0.00 | 65 | 1011.8 |
| 20260505022536 | 62 | 163 | 0.0 | 6.1 | 0.00 | 0.00 | 0.00 | 64 | 1011.8 |
| 20260505022033 | 62 | 343 | 0.9 | 2.6 | 0.00 | 0.00 | 0.00 | 64 | 1011.8 |
| 20260505021529 | 63 | 116 | 0.9 | 2.6 | 0.00 | 0.00 | 0.00 | 63 | 1011.8 |
| 20260505021026 | 63 | 287 | 1.7 | 5.2 | 0.00 | 0.00 | 0.00 | 63 | 1012.1 |
| 20260505020520 | 64 | 120 | 0.9 | 7.0 | 0.00 | 0.00 | 0.00 | 63 | 1012.1 |
| 20260505020018 | 64 | 17 | 1.7 | 3.5 | 0.00 | 0.00 | 0.00 | 62 | 1012.1 |
| 20260505015515 | 64 | 84 | 1.7 | 2.6 | 0.00 | 0.00 | 0.00 | 61 | 1012.1 |
| 20260505015012 | 66 | 270 | 2.6 | 3.5 | 0.00 | 0.00 | 0.00 | 59 | 1012.1 |
| 20260505014509 | 67 | 160 | 0.9 | 7.0 | 0.00 | 0.00 | 0.00 | 58 | 1012.1 |
| 20260505014007 | 67 | 261 | 1.7 | 2.6 | 0.00 | 0.00 | 0.00 | 56 | 1012.1 |
| 20260505013503 | 66 | 345 | 0.9 | 6.1 | 0.00 | 0.00 | 0.00 | 57 | 1012.1 |
| 20260505013000 | 67 | 354 | 1.7 | 5.2 | 0.00 | 0.00 | 0.00 | 56 | 1012.1 |
| 20260505012459 | 68 | 225 | 0.9 | 3.5 | 0.00 | 0.00 | 0.00 | 55 | 1012.5 |
| 20260505011955 | 68 | 205 | 2.6 | 6.1 | 0.00 | 0.00 | 0.00 | 55 | 1012.1 |
| 20260505011451 | 68 | 358 | 1.7 | 8.7 | 0.00 | 0.00 | 0.00 | 55 | 1012.1 |
| 20260505010948 | 67 | 285 | 2.6 | 9.6 | 0.00 | 0.00 | 0.00 | 56 | 1012.5 |
| 20260505010444 | 68 | 38 | 2.6 | 7.0 | 0.00 | 0.00 | 0.00 | 54 | 1012.1 |
| 20260505005940 | 68 | 286 | 0.9 | 3.5 | 0.00 | 0.00 | 0.00 | 55 | 1012.5 |
| 20260505005437 | 68 | 104 | 3.5 | 7.8 | 0.00 | 0.00 | 0.00 | 54 | 1012.5 |
| 20260505004935 | 69 | 226 | 3.5 | 9.6 | 0.00 | 0.00 | 0.00 | 54 | 1012.1 |
| 20260505004431 | 69 | 102 | 0.9 | 3.5 | 0.00 | 0.00 | 0.00 | 54 | 1012.5 |
| 20260505003928 | 70 | 41 | 2.6 | 3.5 | 0.00 | 0.00 | 0.00 | 53 | 1012.5 |
| 20260505003425 | 71 | 258 | 0.9 | 7.0 | 0.00 | 0.00 | 0.00 | 54 | 1012.5 |
| 20260505002921 | 71 | 318 | 0.9 | 2.6 | 0.00 | 0.00 | 0.00 | 53 | 1012.1 |
| 20260505002418 | 71 | 346 | 4.3 | 6.1 | 0.00 | 0.00 | 0.00 | 51 | 1012.5 |
| 20260505001916 | 71 | 270 | 1.7 | 1.7 | 0.00 | 0.00 | 0.00 | 50 | 1012.5 |
| 20260505001413 | 71 | 337 | 3.5 | 6.1 | 0.00 | 0.00 | 0.00 | 52 | 1012.5 |
| 20260505000910 | 71 | 347 | 2.6 | 3.5 | 0.00 | 0.00 | 0.00 | 52 | 1012.5 |
| 20260505000408 | 70 | 321 | 5.2 | 6.1 | 0.00 | 0.00 | 0.00 | 52 | 1012.5 |
| 20260504235904 | 72 | 244 | 3.5 | 6.1 | 0.00 | 0.00 | 0.00 | 50 | 1012.5 |
| 20260504235402 | 72 | 39 | 1.7 | 6.1 | 0.00 | 0.00 | 0.00 | 51 | 1012.5 |
| 20260504234858 | 72 | 33 | 1.7 | 2.6 | 0.00 | 0.00 | 0.00 | 49 | 1012.5 |
| 20260504234356 | 71 | 63 | 1.7 | 5.2 | 0.00 | 0.00 | 0.00 | 50 | 1012.5 |
| 20260504233852 | 73 | 129 | 0.9 | 8.7 | 0.00 | 0.00 | 0.00 | 48 | 1012.5 |
| 20260504233348 | 75 | 114 | 0.9 | 2.6 | 0.00 | 0.00 | 0.00 | 45 | 1012.5 |
| 20260504232844 | 74 | 155 | 0.0 | 0.9 | 0.00 | 0.00 | 0.00 | 45 | 1012.5 |
| 20260504232342 | 73 | 243 | 0.9 | 1.7 | 0.00 | 0.00 | 0.00 | 47 | 1012.5 |
| 20260504231838 | 72 | 87 | 0.9 | 11.3 | 0.00 | 0.00 | 0.00 | 49 | 1012.5 |
| 20260504231335 | 71 | 100 | 0.0 | 6.1 | 0.00 | 0.00 | 0.00 | 50 | 1012.5 |
| 20260504230831 | 71 | 101 | 0.0 | 6.1 | 0.00 | 0.00 | 0.00 | 49 | 1012.5 |
| 20260504230329 | 70 | 86 | 1.7 | 7.0 | 0.00 | 0.00 | 0.00 | 51 | 1012.5 |
| 20260504225828 | 69 | 303 | 1.7 | 7.0 | 0.00 | 0.00 | 0.00 | 52 | 1012.5 |
| 20260504225324 | 70 | 249 | 3.5 | 6.1 | 0.00 | 0.00 | 0.00 | 51 | 1012.5 |
| 20260504224821 | 69 | 141 | 2.6 | 6.1 | 0.00 | 0.00 | 0.00 | 53 | 1012.5 |
| 20260504224318 | 70 | 101 | 0.9 | 5.2 | 0.00 | 0.00 | 0.00 | 52 | 1012.5 |
| 20260504223815 | 71 | 316 | 2.6 | 3.5 | 0.00 | 0.00 | 0.00 | 50 | 1012.5 |
| 20260504223310 | 71 | 335 | 1.7 | 6.1 | 0.00 | 0.00 | 0.00 | 51 | 1012.8 |
| 20260504222807 | 73 | 46 | 0.9 | 2.6 | 0.00 | 0.00 | 0.00 | 46 | 1012.5 |
| 20260504222305 | 74 | 191 | 2.6 | 3.5 | 0.00 | 0.00 | 0.00 | 43 | 1012.5 |
| 20260504221802 | 73 | 116 | 0.9 | 1.7 | 0.00 | 0.00 | 0.00 | 45 | 1012.8 |
| 20260504221259 | 74 | 106 | 0.9 | 1.7 | 0.00 | 0.00 | 0.00 | 43 | 1012.8 |
| 20260504220755 | 74 | 183 | 1.7 | 3.5 | 0.00 | 0.00 | 0.00 | 43 | 1012.8 |
| 20260504220252 | 73 | 270 | 1.7 | 3.5 | 0.00 | 0.00 | 0.00 | 44 | 1012.5 |
| 20260504215749 | 75 | 72 | 0.9 | 2.6 | 0.00 | 0.00 | 0.00 | 43 | 1012.8 |
| 20260504215245 | 75 | 129 | 0.9 | 0.9 | 0.00 | 0.00 | 0.00 | 42 | 1012.5 |
| 20260504214736 | 74 | 1 | 1.7 | 2.6 | 0.00 | 0.00 | 0.00 | 43 | 1012.8 |
| 20260504214233 | 76 | 217 | 1.7 | 5.2 | 0.00 | 0.00 | 0.00 | 41 | 1012.8 |
| 20260504213729 | 74 | 161 | 0.0 | 2.6 | 0.00 | 0.00 | 0.00 | 42 | 1012.8 |
| 20260504213225 | 74 | 305 | 5.2 | 6.1 | 0.00 | 0.00 | 0.00 | 41 | 1012.8 |
| 20260504212723 | 76 | 89 | 0.0 | 2.6 | 0.00 | 0.00 | 0.00 | 41 | 1012.8 |
| 20260504212220 | 76 | 85 | 1.7 | 3.5 | 0.00 | 0.00 | 0.00 | 42 | 1013.1 |
| 20260504211717 | 75 | 241 | 0.9 | 2.6 | 0.00 | 0.00 | 0.00 | 45 | 1012.8 |
| 20260504211213 | 75 | 148 | 0.0 | 1.7 | 0.00 | 0.00 | 0.00 | 45 | 1012.8 |
| 20260504210711 | 77 | 30 | 1.7 | 2.6 | 0.00 | 0.00 | 0.00 | 43 | 1012.8 |
| 20260504210208 | 77 | 45 | 2.6 | 3.5 | 0.00 | 0.00 | 0.00 | 41 | 1012.8 |
| 20260504205705 | 78 | 50 | 2.6 | 2.6 | 0.00 | 0.00 | 0.00 | 36 | 1012.8 |
| 20260504205202 | 76 | 118 | 0.9 | 2.6 | 0.00 | 0.00 | 0.00 | 37 | 1012.8 |
| 20260504204700 | 78 | 6 | 1.7 | 2.6 | 0.00 | 0.00 | 0.00 | 36 | 1012.8 |
| 20260504204159 | 77 | 75 | 0.9 | 3.5 | 0.00 | 0.00 | 0.00 | 37 | 1012.8 |
| 20260504203657 | 77 | 92 | 0.9 | 3.5 | 0.00 | 0.00 | 0.00 | 37 | 1012.8 |
| 20260504203154 | 79 | 49 | 0.9 | 1.7 | 0.00 | 0.00 | 0.00 | 36 | 1012.8 |
| 20260504202649 | 79 | 27 | 1.7 | 2.6 | 0.00 | 0.00 | 0.00 | 36 | 1012.8 |
| 20260504202146 | 79 | 20 | 0.9 | 1.7 | 0.00 | 0.00 | 0.00 | 36 | 1012.8 |
| 20260504201643 | 77 | 164 | 0.0 | 1.7 | 0.00 | 0.00 | 0.00 | 38 | 1012.8 |
| 20260504201141 | 78 | 131 | 0.0 | 1.7 | 0.00 | 0.00 | 0.00 | 38 | 1012.8 |
| 20260504200638 | 76 | 67 | 0.9 | 6.1 | 0.00 | 0.00 | 0.00 | 40 | 1012.8 |
| 20260504200134 | 75 | 53 | 0.9 | 2.6 | 0.00 | 0.00 | 0.00 | 39 | 1012.8 |
| 20260504195630 | 75 | 136 | 0.0 | 2.6 | 0.00 | 0.00 | 0.00 | 38 | 1012.8 |
| 20260504195127 | 76 | 101 | 0.9 | 1.7 | 0.00 | 0.00 | 0.00 | 38 | 1012.8 |
| 20260504194623 | 74 | 53 | 0.9 | 2.6 | 0.00 | 0.00 | 0.00 | 39 | 1012.8 |
| 20260504194119 | 75 | 109 | 1.7 | 6.1 | 0.00 | 0.00 | 0.00 | 40 | 1012.8 |
| 20260504193616 | 75 | 79 | 0.9 | 2.6 | 0.00 | 0.00 | 0.00 | 42 | 1012.8 |
| 20260504193114 | 75 | 82 | 1.7 | 2.6 | 0.00 | 0.00 | 0.00 | 41 | 1013.1 |
| 20260504192612 | 75 | 248 | 0.0 | 1.7 | 0.00 | 0.00 | 0.00 | 41 | 1012.8 |
| 20260504192110 | 75 | 20 | 1.7 | 3.5 | 0.00 | 0.00 | 0.00 | 42 | 1012.8 |
| 20260504191608 | 75 | 318 | 2.6 | 3.5 | 0.00 | 0.00 | 0.00 | 43 | 1012.8 |
| 20260504191104 | 74 | 326 | 2.6 | 3.5 | 0.00 | 0.00 | 0.00 | 42 | 1012.8 |
| 20260504190600 | 75 | 101 | 0.9 | 2.6 | 0.00 | 0.00 | 0.00 | 42 | 1012.8 |
| 20260504190056 | 74 | 112 | 1.7 | 2.6 | 0.00 | 0.00 | 0.00 | 42 | 1012.8 |
| 20260504185553 | 75 | 71 | 0.9 | 0.9 | 0.00 | 0.00 | 0.00 | 42 | 1012.8 |
| 20260504185050 | 75 | 193 | 1.7 | 2.6 | 0.00 | 0.00 | 0.00 | 42 | 1012.8 |
| 20260504184545 | 75 | 289 | 1.7 | 1.7 | 0.00 | 0.00 | 0.00 | 44 | 1012.8 |
| 20260504184041 | 73 | 115 | 0.9 | 1.7 | 0.00 | 0.00 | 0.00 | 44 | 1012.8 |
| 20260504183538 | 72 | 47 | 1.7 | 2.6 | 0.00 | 0.00 | 0.00 | 46 | 1012.8 |
| 20260504183036 | 71 | 347 | 3.5 | 6.1 | 0.00 | 0.00 | 0.00 | 46 | 1012.8 |
| 20260504182533 | 70 | 81 | 0.9 | 1.7 | 0.00 | 0.00 | 0.00 | 47 | 1012.8 |
| 20260504182030 | 71 | 232 | 3.5 | 3.5 | 0.00 | 0.00 | 0.00 | 45 | 1012.8 |
| 20260504181527 | 71 | 220 | 1.7 | 2.6 | 0.00 | 0.00 | 0.00 | 49 | 1012.8 |
| 20260504181026 | 70 | 151 | 0.9 | 1.7 | 0.00 | 0.00 | 0.00 | 50 | 1012.8 |
| 20260504180524 | 70 | 297 | 0.9 | 2.6 | 0.00 | 0.00 | 0.00 | 49 | 1012.8 |
| 20260504180023 | 67 | 32 | 1.7 | 6.1 | 0.00 | 0.00 | 0.00 | 51 | 1013.1 |
| 20260504175519 | 69 | 319 | 1.7 | 2.6 | 0.00 | 0.00 | 0.00 | 49 | 1012.8 |
| 20260504175017 | 68 | 180 | 0.9 | 5.2 | 0.00 | 0.00 | 0.00 | 50 | 1013.1 |
| 20260504174514 | 68 | 111 | 0.0 | 3.5 | 0.00 | 0.00 | 0.00 | 52 | 1012.8 |
| 20260504174011 | 68 | 89 | 0.9 | 2.6 | 0.00 | 0.00 | 0.00 | 51 | 1012.8 |
| 20260504173508 | 68 | 113 | 0.0 | 3.5 | 0.00 | 0.00 | 0.00 | 51 | 1013.1 |
| 20260504173005 | 68 | 84 | 1.7 | 1.7 | 0.00 | 0.00 | 0.00 | 53 | 1012.8 |
| 20260504172501 | 67 | 108 | 1.7 | 3.5 | 0.00 | 0.00 | 0.00 | 54 | 1012.8 |
| 20260504171957 | 67 | 47 | 0.9 | 5.2 | 0.00 | 0.00 | 0.00 | 55 | 1012.8 |
| 20260504171455 | 67 | 106 | 0.9 | 1.7 | 0.00 | 0.00 | 0.00 | 56 | 1012.8 |
| 20260504170951 | 66 | 89 | 0.0 | 1.7 | 0.00 | 0.00 | 0.00 | 56 | 1012.8 |
| 20260504170448 | 67 | 64 | 0.9 | 5.2 | 0.00 | 0.00 | 0.00 | 57 | 1012.8 |
| 20260504160408 | 63 | 29 | 0.9 | 2.6 | 0.00 | 0.00 | 0.00 | 63 | 1012.5 |
| 20260504150831 | 59 | 108 | 0.0 | 0.0 | 0.00 | 0.00 | 0.00 | 70 | 1012.1 |
| 20260504150328 | 59 | 127 | 0.0 | 0.0 | 0.00 | 0.00 | 0.00 | 71 | 1012.1 |
| 20260504141258 | 58 | 96 | 0.0 | 0.0 | 0.00 | 0.00 | 0.00 | 65 | 1011.8 |
| 20260504140755 | 58 | 95 | 0.0 | 1.7 | 0.00 | 0.00 | 0.00 | 65 | 1011.8 |
| 20260504140250 | 57 | 93 | 0.0 | 0.9 | 0.00 | 0.00 | 0.00 | 65 | 1011.8 |
| 20260504130719 | 53 | 122 | 0.0 | 0.0 | 0.00 | 0.00 | 0.00 | 71 | 1011.3 |
| 20260504130215 | 53 | 126 | 0.0 | 0.0 | 0.00 | 0.00 | 0.00 | 71 | 1011.3 |
| 20260504120139 | 51 | 141 | 0.0 | 0.0 | 0.00 | 0.00 | 0.00 | 77 | 1011.3 |
| 20260504110606 | 50 | 106 | 0.0 | 0.0 | 0.00 | 0.00 | 0.00 | 81 | 1011.8 |
| 20260504100528 | 51 | 113 | 0.0 | 0.0 | 0.00 | 0.00 | 0.00 | 79 | 1011.8 |
| 20260504081921 | 55 | 120 | 0.0 | 0.0 | 0.00 | 0.00 | 0.00 | 66 | 1011.8 |
| 20260504081418 | 56 | 121 | 0.0 | 0.0 | 0.00 | 0.00 | 0.00 | 65 | 1011.8 |
| 20260504080914 | 57 | 112 | 0.0 | 0.0 | 0.00 | 0.00 | 0.00 | 63 | 1011.8 |
| 20260504080411 | 57 | 112 | 0.0 | 0.0 | 0.00 | 0.00 | 0.00 | 62 | 1011.3 |
| 20260504070338 | 61 | 115 | 0.0 | 0.0 | 0.00 | 0.00 | 0.00 | 52 | 1012.1 |
| 20260504050715 | 63 | 179 | 0.0 | 0.9 | 0.00 | 0.00 | 0.00 | 49 | 1012.5 |
| 20260504050212 | 63 | 96 | 0.9 | 0.9 | 0.00 | 0.00 | 0.00 | 49 | 1012.5 |
| 20260504045709 | 63 | 157 | 0.0 | 0.9 | 0.00 | 0.00 | 0.00 | 48 | 1012.5 |
| 20260504045204 | 64 | 126 | 0.9 | 0.9 | 0.00 | 0.00 | 0.00 | 49 | 1012.5 |
| 20260504044702 | 64 | 205 | 1.7 | 1.7 | 0.00 | 0.00 | 0.00 | 48 | 1012.5 |
| 20260504044159 | 65 | 103 | 0.9 | 0.9 | 0.00 | 0.00 | 0.00 | 46 | 1012.5 |
| 20260504043656 | 65 | 344 | 0.9 | 0.9 | 0.00 | 0.00 | 0.00 | 47 | 1012.5 |
| 20260504043153 | 65 | 103 | 0.9 | 0.9 | 0.00 | 0.00 | 0.00 | 47 | 1012.5 |
| 20260504042650 | 66 | 111 | 0.0 | 0.9 | 0.00 | 0.00 | 0.00 | 47 | 1012.5 |
| 20260504042147 | 66 | 111 | 0.9 | 1.7 | 0.00 | 0.00 | 0.00 | 44 | 1012.5 |
| 20260504041642 | 66 | 84 | 0.9 | 0.9 | 0.00 | 0.00 | 0.00 | 45 | 1012.5 |
| 20260504041138 | 66 | 75 | 0.9 | 0.9 | 0.00 | 0.00 | 0.00 | 44 | 1012.5 |
| 20260504040636 | 65 | 293 | 0.9 | 1.7 | 0.00 | 0.00 | 0.00 | 46 | 1012.5 |